Wetterdaten: Montag, 21.05.2012
Datum Zeit Temperatur Luftfeuchte Regen Wind Richtung Richtung Taupunkt Windchill Windben
21.05.2012 00:00 15,1 C 54 % 0,0 l/m 0,3 km/h (0 Bft) NO 45 5,9 C 15,5 C 0,0 km/h (0 Bft)
21.05.2012 00:05 15,1 C 55 % 0,0 l/m 0,3 km/h (0 Bft) S-SO 157 6,1 C 15,5 C 0,0 km/h (0 Bft)
21.05.2012 00:10 15,1 C 55 % 0,0 l/m 1,4 km/h (1 Bft) N 360 6,1 C 15,7 C 3,9 km/h (1 Bft)
21.05.2012 00:15 15,1 C 55 % 0,0 l/m 2,4 km/h (1 Bft) W-NW 292 6,1 C 15,9 C 8,2 km/h (2 Bft)
21.05.2012 00:20 15,1 C 55 % 0,0 l/m 1,6 km/h (1 Bft) N 360 6,1 C 15,9 C 3,7 km/h (1 Bft)
21.05.2012 00:25 14,8 C 55 % 0,0 l/m 0,6 km/h (0 Bft) NW 315 5,8 C 15,7 C 1,8 km/h (1 Bft)
21.05.2012 00:30 15,0 C 55 % 0,0 l/m 0,6 km/h (0 Bft) W-NW 292 6,0 C 15,5 C 1,8 km/h (1 Bft)
21.05.2012 00:35 14,9 C 55 % 0,0 l/m 1,1 km/h (1 Bft) N-NW 337 5,9 C 15,5 C 2,1 km/h (1 Bft)
21.05.2012 00:40 14,6 C 55 % 0,0 l/m 1,0 km/h (0 Bft) NO 45 5,7 C 15,4 C 1,6 km/h (1 Bft)
21.05.2012 00:45 14,9 C 54 % 0,0 l/m 0,6 km/h (0 Bft) N-NO 22 5,7 C 15,3 C 1,9 km/h (1 Bft)
21.05.2012 00:50 15,0 C 54 % 0,0 l/m 0,5 km/h (0 Bft) N-NW 337 5,8 C 15,3 C 1,6 km/h (1 Bft)
21.05.2012 00:55 15,0 C 53 % 0,0 l/m 1,0 km/h (0 Bft) N 360 5,5 C 15,2 C 0,0 km/h (0 Bft)
21.05.2012 01:00 14,9 C 54 % 0,0 l/m 1,1 km/h (1 Bft) NO 45 5,7 C 15,2 C 0,0 km/h (0 Bft)
21.05.2012 01:05 14,9 C 54 % 0,0 l/m 0,6 km/h (0 Bft) N-NO 22 5,7 C 15,2 C 0,0 km/h (0 Bft)
21.05.2012 01:10 14,8 C 56 % 0,0 l/m 0,3 km/h (0 Bft) N-NW 337 6,1 C 15,1 C 0,0 km/h (0 Bft)
21.05.2012 01:15 14,8 C 55 % 0,0 l/m 0,6 km/h (0 Bft) N-NW 337 5,8 C 15,0 C 2,7 km/h (1 Bft)
21.05.2012 01:20 14,5 C 56 % 0,0 l/m 1,3 km/h (1 Bft) N 360 5,8 C 15,0 C 0,0 km/h (0 Bft)
21.05.2012 01:25 14,6 C 56 % 0,0 l/m 1,4 km/h (1 Bft) N-NW 337 5,9 C 14,9 C 2,9 km/h (1 Bft)
21.05.2012 01:30 14,3 C 56 % 0,0 l/m 1,3 km/h (1 Bft) N-NW 337 5,6 C 14,9 C 1,9 km/h (1 Bft)
21.05.2012 01:35 14,4 C 56 % 0,0 l/m 1,3 km/h (1 Bft) N 360 5,7 C 14,9 C 1,6 km/h (1 Bft)
21.05.2012 01:40 14,3 C 56 % 0,0 l/m 0,8 km/h (0 Bft) N-NO 22 5,6 C 14,8 C 0,0 km/h (0 Bft)
21.05.2012 01:45 14,3 C 55 % 0,0 l/m 0,3 km/h (0 Bft) N-NO 22 5,4 C 14,7 C 0,0 km/h (0 Bft)
21.05.2012 01:50 14,3 C 55 % 0,0 l/m 0,0 km/h (0 Bft) N-NW 337 5,4 C 14,6 C 0,0 km/h (0 Bft)
21.05.2012 01:55 14,1 C 55 % 0,0 l/m 0,2 km/h (0 Bft) N 360 5,2 C 14,5 C 3,1 km/h (1 Bft)
21.05.2012 02:00 14,2 C 56 % 0,0 l/m 0,6 km/h (0 Bft) SO 135 5,6 C 14,5 C 1,6 km/h (1 Bft)
21.05.2012 02:05 14,2 C 56 % 0,0 l/m 0,8 km/h (0 Bft) N 360 5,6 C 14,5 C 0,0 km/h (0 Bft)
21.05.2012 02:10 14,3 C 55 % 0,0 l/m 0,5 km/h (0 Bft) N 360 5,4 C 14,5 C 0,0 km/h (0 Bft)
21.05.2012 02:15 14,4 C 55 % 0,0 l/m 0,8 km/h (0 Bft) N 360 5,5 C 14,5 C 0,0 km/h (0 Bft)
21.05.2012 02:20 14,1 C 56 % 0,0 l/m 0,6 km/h (0 Bft) S-SW 202 5,5 C 14,5 C 1,9 km/h (1 Bft)
21.05.2012 02:25 13,6 C 57 % 0,0 l/m 0,3 km/h (0 Bft) N 360 5,2 C 14,4 C 1,8 km/h (1 Bft)
21.05.2012 02:30 13,8 C 57 % 0,0 l/m 0,2 km/h (0 Bft) SO 135 5,4 C 14,2 C 1,6 km/h (1 Bft)
21.05.2012 02:35 13,6 C 58 % 0,0 l/m 0,5 km/h (0 Bft) N-NO 22 5,5 C 14,2 C 0,0 km/h (0 Bft)
21.05.2012 02:40 13,6 C 58 % 0,0 l/m 0,5 km/h (0 Bft) NO 45 5,5 C 14,0 C 0,0 km/h (0 Bft)
21.05.2012 02:45 13,4 C 59 % 0,0 l/m 0,2 km/h (0 Bft) N 360 5,6 C 14,0 C 0,0 km/h (0 Bft)
21.05.2012 02:50 13,0 C 59 % 0,0 l/m 0,0 km/h (0 Bft) SO 135 5,2 C 13,6 C 0,0 km/h (0 Bft)
21.05.2012 02:55 12,9 C 62 % 0,0 l/m 0,0 km/h (0 Bft) N-NO 22 5,8 C 13,4 C 0,0 km/h (0 Bft)
21.05.2012 03:00 12,7 C 65 % 0,0 l/m 0,0 km/h (0 Bft) N 360 6,3 C 13,0 C 0,0 km/h (0 Bft)
21.05.2012 03:05 12,9 C 65 % 0,0 l/m 0,3 km/h (0 Bft) N-NW 337 6,5 C 13,0 C 1,6 km/h (1 Bft)
21.05.2012 03:10 13,0 C 60 % 0,0 l/m 0,6 km/h (0 Bft) N 360 5,4 C 13,0 C 0,0 km/h (0 Bft)
21.05.2012 03:15 13,2 C 59 % 0,0 l/m 0,3 km/h (0 Bft) W-NW 292 5,4 C 13,1 C 0,0 km/h (0 Bft)
21.05.2012 03:20 12,7 C 62 % 0,0 l/m 0,0 km/h (0 Bft) W-SW 247 5,6 C 13,0 C 0,0 km/h (0 Bft)
21.05.2012 03:25 12,8 C 61 % 0,0 l/m 0,0 km/h (0 Bft) N-NW 337 5,5 C 13,0 C 0,0 km/h (0 Bft)
21.05.2012 03:30 13,1 C 59 % 0,0 l/m 0,3 km/h (0 Bft) N-NO 22 5,3 C 13,1 C 0,0 km/h (0 Bft)
21.05.2012 03:35 13,0 C 59 % 0,0 l/m 0,5 km/h (0 Bft) N 360 5,2 C 13,1 C 1,6 km/h (1 Bft)
21.05.2012 03:40 12,9 C 59 % 0,0 l/m 0,8 km/h (0 Bft) N-NO 22 5,1 C 13,2 C 2,4 km/h (1 Bft)
21.05.2012 03:45 12,7 C 59 % 0,0 l/m 0,8 km/h (0 Bft) SW 225 4,9 C 13,3 C 0,0 km/h (0 Bft)
21.05.2012 03:50 13,2 C 59 % 0,0 l/m 1,0 km/h (0 Bft) W-NW 292 5,4 C 13,4 C 2,6 km/h (1 Bft)
21.05.2012 03:55 13,4 C 58 % 0,0 l/m 1,4 km/h (1 Bft) N-NW 337 5,3 C 13,4 C 1,9 km/h (1 Bft)
21.05.2012 04:00 13,3 C 58 % 0,0 l/m 1,3 km/h (1 Bft) N-NO 22 5,2 C 13,6 C 0,0 km/h (0 Bft)
21.05.2012 04:05 13,1 C 58 % 0,0 l/m 0,5 km/h (0 Bft) S-SO 157 5,0 C 13,4 C 2,3 km/h (1 Bft)
21.05.2012 04:10 12,9 C 58 % 0,0 l/m 0,5 km/h (0 Bft) SO 135 4,8 C 13,3 C 1,6 km/h (1 Bft)
21.05.2012 04:15 12,9 C 58 % 0,0 l/m 0,8 km/h (0 Bft) N 360 4,8 C 13,3 C 4,3 km/h (1 Bft)
21.05.2012 04:20 13,0 C 58 % 0,0 l/m 1,0 km/h (0 Bft) N 360 4,9 C 13,2 C 3,7 km/h (1 Bft)
21.05.2012 04:25 13,0 C 58 % 0,0 l/m 1,6 km/h (1 Bft) N 360 4,9 C 13,2 C 3,5 km/h (1 Bft)
21.05.2012 04:30 13,3 C 57 % 0,0 l/m 2,1 km/h (1 Bft) N 360 5,0 C 13,2 C 2,7 km/h (1 Bft)
21.05.2012 04:35 13,3 C 57 % 0,0 l/m 2,4 km/h (1 Bft) N 360 5,0 C 13,3 C 3,7 km/h (1 Bft)
21.05.2012 04:40 13,7 C 56 % 0,0 l/m 1,4 km/h (1 Bft) N-NO 22 5,1 C 13,3 C 2,3 km/h (1 Bft)
21.05.2012 04:45 13,6 C 56 % 0,0 l/m 1,1 km/h (1 Bft) NO 45 5,0 C 13,3 C 2,6 km/h (1 Bft)
21.05.2012 04:50 13,6 C 58 % 0,0 l/m 1,3 km/h (1 Bft) NO 45 5,5 C 13,4 C 2,4 km/h (1 Bft)
21.05.2012 04:55 13,7 C 57 % 0,0 l/m 1,3 km/h (1 Bft) NO 45 5,3 C 13,6 C 1,9 km/h (1 Bft)
21.05.2012 05:00 13,4 C 58 % 0,0 l/m 1,0 km/h (0 Bft) N 360 5,3 C 13,7 C 2,6 km/h (1 Bft)
21.05.2012 05:05 13,3 C 58 % 0,0 l/m 1,0 km/h (0 Bft) NW 315 5,2 C 13,7 C 1,9 km/h (1 Bft)
21.05.2012 05:10 13,4 C 58 % 0,0 l/m 1,4 km/h (1 Bft) N-NW 337 5,3 C 13,7 C 3,1 km/h (1 Bft)
21.05.2012 05:15 13,5 C 57 % 0,0 l/m 1,6 km/h (1 Bft) N 360 5,2 C 13,8 C 1,9 km/h (1 Bft)
21.05.2012 05:20 13,8 C 57 % 0,0 l/m 1,3 km/h (1 Bft) O-SO 112 5,4 C 13,9 C 0,0 km/h (0 Bft)
21.05.2012 05:25 13,8 C 57 % 0,0 l/m 0,5 km/h (0 Bft) N-NO 22 5,4 C 13,9 C 0,0 km/h (0 Bft)
21.05.2012 05:30 13,6 C 57 % 0,0 l/m 0,5 km/h (0 Bft) N-NW 337 5,2 C 13,8 C 1,8 km/h (1 Bft)
21.05.2012 05:35 13,2 C 58 % 0,0 l/m 0,5 km/h (0 Bft) N 360 5,1 C 13,8 C 1,9 km/h (1 Bft)
21.05.2012 05:40 13,0 C 58 % 0,0 l/m 0,3 km/h (0 Bft) S 180 4,9 C 13,6 C 0,0 km/h (0 Bft)
21.05.2012 05:45 13,0 C 58 % 0,0 l/m 0,2 km/h (0 Bft) N-NO 22 4,9 C 13,6 C 0,0 km/h (0 Bft)
21.05.2012 05:50 13,0 C 59 % 0,0 l/m 0,0 km/h (0 Bft) N 360 5,2 C 13,3 C 0,0 km/h (0 Bft)
21.05.2012 05:55 13,0 C 59 % 0,0 l/m 0,2 km/h (0 Bft) N-NO 22 5,2 C 13,3 C 1,8 km/h (1 Bft)
21.05.2012 06:00 13,6 C 58 % 0,0 l/m 0,3 km/h (0 Bft) NO 45 5,5 C 13,3 C 0,0 km/h (0 Bft)
21.05.2012 06:05 13,5 C 58 % 0,0 l/m 0,3 km/h (0 Bft) N 360 5,4 C 13,3 C 0,0 km/h (0 Bft)
21.05.2012 06:10 13,4 C 59 % 0,0 l/m 0,5 km/h (0 Bft) NO 45 5,6 C 13,3 C 1,9 km/h (1 Bft)
21.05.2012 06:15 13,3 C 59 % 0,0 l/m 0,5 km/h (0 Bft) N-NO 22 5,5 C 13,4 C 0,0 km/h (0 Bft)
21.05.2012 06:20 13,9 C 57 % 0,0 l/m 0,5 km/h (0 Bft) N 360 5,5 C 13,6 C 0,0 km/h (0 Bft)
21.05.2012 06:25 13,5 C 59 % 0,0 l/m 0,5 km/h (0 Bft) N-NO 22 5,6 C 13,6 C 0,0 km/h (0 Bft)
21.05.2012 06:30 13,4 C 58 % 0,0 l/m 0,6 km/h (0 Bft) NO 45 5,3 C 13,5 C 3,2 km/h (1 Bft)
21.05.2012 06:35 13,8 C 57 % 0,0 l/m 1,1 km/h (1 Bft) N-NW 337 5,4 C 13,6 C 2,7 km/h (1 Bft)
21.05.2012 06:40 14,2 C 56 % 0,0 l/m 1,8 km/h (1 Bft) NO 45 5,6 C 14,0 C 2,7 km/h (1 Bft)
21.05.2012 06:45 14,1 C 56 % 0,0 l/m 2,3 km/h (1 Bft) N-NO 22 5,5 C 14,1 C 2,9 km/h (1 Bft)
21.05.2012 06:50 14,3 C 56 % 0,0 l/m 1,4 km/h (1 Bft) N 360 5,6 C 14,2 C 3,2 km/h (1 Bft)
21.05.2012 06:55 14,0 C 56 % 0,0 l/m 1,3 km/h (1 Bft) N-NO 22 5,4 C 14,2 C 0,0 km/h (0 Bft)
21.05.2012 07:00 14,0 C 56 % 0,0 l/m 1,3 km/h (1 Bft) NO 45 5,4 C 14,1 C 0,0 km/h (0 Bft)
21.05.2012 07:05 13,9 C 58 % 0,0 l/m 0,5 km/h (0 Bft) N 360 5,8 C 14,2 C 0,0 km/h (0 Bft)
21.05.2012 07:10 13,9 C 58 % 0,0 l/m 0,6 km/h (0 Bft) W-SW 247 5,8 C 14,3 C 0,0 km/h (0 Bft)
21.05.2012 07:15 14,0 C 58 % 0,0 l/m 0,8 km/h (0 Bft) S-SO 157 5,9 C 14,4 C 2,6 km/h (1 Bft)
21.05.2012 07:20 14,3 C 58 % 0,0 l/m 1,6 km/h (1 Bft) SO 135 6,2 C 14,7 C 7,1 km/h (2 Bft)
21.05.2012 07:25 14,4 C 59 % 0,0 l/m 2,7 km/h (1 Bft) S-SO 157 6,5 C 14,9 C 2,6 km/h (1 Bft)
21.05.2012 07:30 14,4 C 59 % 0,0 l/m 3,1 km/h (1 Bft) NO 45 6,5 C 15,1 C 0,0 km/h (0 Bft)
21.05.2012 07:35 14,5 C 58 % 0,0 l/m 1,6 km/h (1 Bft) S-SW 202 6,3 C 15,1 C 0,0 km/h (0 Bft)
21.05.2012 07:40 14,6 C 60 % 0,0 l/m 0,8 km/h (0 Bft) W-NW 292 6,9 C 15,1 C 2,7 km/h (1 Bft)
21.05.2012 07:45 14,8 C 59 % 0,0 l/m 1,4 km/h (1 Bft) N 360 6,9 C 15,3 C 2,3 km/h (1 Bft)
21.05.2012 07:50 15,3 C 58 % 0,0 l/m 1,0 km/h (0 Bft) N-NO 22 7,1 C 15,6 C 0,0 km/h (0 Bft)
21.05.2012 07:55 15,7 C 59 % 0,0 l/m 0,5 km/h (0 Bft) SO 135 7,7 C 15,8 C 3,1 km/h (1 Bft)
21.05.2012 08:00 16,1 C 60 % 0,0 l/m 1,0 km/h (0 Bft) W-SW 247 8,3 C 16,4 C 0,0 km/h (0 Bft)
21.05.2012 08:05 16,0 C 59 % 0,0 l/m 1,3 km/h (1 Bft) O-SO 112 8,0 C 16,5 C 2,9 km/h (1 Bft)
21.05.2012 08:10 16,1 C 59 % 0,0 l/m 0,8 km/h (0 Bft) SO 135 8,1 C 16,7 C 0,0 km/h (0 Bft)
21.05.2012 08:15 17,0 C 57 % 0,0 l/m 0,6 km/h (0 Bft) N-NW 337 8,4 C 17,0 C 2,1 km/h (1 Bft)
21.05.2012 08:20 17,5 C 56 % 0,0 l/m 0,5 km/h (0 Bft) N-NO 22 8,7 C 17,9 C 0,0 km/h (0 Bft)
21.05.2012 08:25 17,9 C 56 % 0,0 l/m 0,6 km/h (0 Bft) W-SW 247 9,4 C 18,6 C 2,4 km/h (1 Bft)
21.05.2012 08:30 18,9 C 53 % 0,0 l/m 0,5 km/h (0 Bft) SO 135 10,3 C 19,1 C 0,0 km/h (0 Bft)
21.05.2012 08:35 20,0 C 48 % 0,0 l/m 1,0 km/h (0 Bft) S-SO 157 12,0 C 22,0 C 2,4 km/h (1 Bft)
21.05.2012 08:40 21,2 C 39 % 0,0 l/m 1,8 km/h (1 Bft) S-SO 157 10,8 C 25,2 C 3,1 km/h (1 Bft)
21.05.2012 08:45 21,3 C 37 % 0,0 l/m 2,1 km/h (1 Bft) W-SW 247 8,6 C 26,4 C 4,3 km/h (1 Bft)
21.05.2012 08:50 21,1 C 41 % 0,0 l/m 1,9 km/h (1 Bft) W-NW 292 7,7 C 25,2 C 3,5 km/h (1 Bft)
21.05.2012 08:55 21,2 C 41 % 0,0 l/m 2,1 km/h (1 Bft) N-NO 22 8,9 C 24,5 C 3,2 km/h (1 Bft)
21.05.2012 09:00 20,9 C 42 % 0,0 l/m 2,3 km/h (1 Bft) N-NW 337 7,9 C 24,0 C 1,8 km/h (1 Bft)
21.05.2012 09:05 21,0 C 43 % 0,0 l/m 1,9 km/h (1 Bft) O 90 8,4 C 23,2 C 0,0 km/h (0 Bft)
21.05.2012 09:10 21,3 C 44 % 0,0 l/m 1,3 km/h (1 Bft) SW 225 9,0 C 23,2 C 0,0 km/h (0 Bft)
21.05.2012 09:15 21,3 C 43 % 0,0 l/m 0,8 km/h (0 Bft) S 180 8,7 C 23,4 C 1,8 km/h (1 Bft)
21.05.2012 09:20 20,8 C 46 % 0,0 l/m 1,1 km/h (1 Bft) W 270 8,8 C 23,2 C 3,2 km/h (1 Bft)
21.05.2012 09:25 20,7 C 41 % 0,0 l/m 2,1 km/h (1 Bft) O-NO 67 7,0 C 22,7 C 10,1 km/h (2 Bft)
21.05.2012 09:30 20,6 C 42 % 0,0 l/m 2,9 km/h (1 Bft) W-NW 292 7,2 C 22,1 C 3,5 km/h (1 Bft)
21.05.2012 09:35 20,8 C 46 % 0,0 l/m 2,4 km/h (1 Bft) O 90 8,8 C 22,2 C 2,7 km/h (1 Bft)
21.05.2012 09:40 20,8 C 45 % 0,0 l/m 1,4 km/h (1 Bft) S-SW 202 8,4 C 22,2 C 1,8 km/h (1 Bft)
21.05.2012 09:45 20,2 C 46 % 0,0 l/m 1,3 km/h (1 Bft) N 360 8,2 C 22,2 C 3,4 km/h (1 Bft)
21.05.2012 09:50 20,4 C 45 % 0,0 l/m 1,9 km/h (1 Bft) N-NW 337 8,1 C 22,0 C 2,1 km/h (1 Bft)
21.05.2012 09:55 20,4 C 45 % 0,0 l/m 1,6 km/h (1 Bft) S-SW 202 8,1 C 21,9 C 0,0 km/h (0 Bft)
21.05.2012 10:00 19,9 C 47 % 0,0 l/m 1,6 km/h (1 Bft) S 180 8,3 C 21,7 C 2,6 km/h (1 Bft)
21.05.2012 10:05 20,3 C 46 % 0,0 l/m 1,8 km/h (1 Bft) W 270 8,3 C 21,5 C 1,9 km/h (1 Bft)
21.05.2012 10:10 21,6 C 45 % 0,0 l/m 1,9 km/h (1 Bft) W-SW 247 9,2 C 22,1 C 3,7 km/h (1 Bft)
21.05.2012 10:15 21,4 C 43 % 0,0 l/m 1,8 km/h (1 Bft) S-SW 202 8,3 C 22,6 C 1,9 km/h (1 Bft)
21.05.2012 10:20 22,7 C 43 % 0,0 l/m 2,6 km/h (1 Bft) N-NW 337 9,6 C 22,8 C 3,4 km/h (1 Bft)
21.05.2012 10:25 23,1 C 39 % 0,0 l/m 3,4 km/h (1 Bft) W 270 9,0 C 23,9 C 13,0 km/h (3 Bft)
21.05.2012 10:30 22,6 C 37 % 0,0 l/m 4,8 km/h (1 Bft) W-NW 292 7,2 C 24,3 C 2,3 km/h (1 Bft)
21.05.2012 10:35 21,9 C 39 % 0,0 l/m 4,8 km/h (1 Bft) NW 315 7,3 C 23,8 C 6,3 km/h (2 Bft)
21.05.2012 10:40 22,8 C 39 % 0,0 l/m 3,9 km/h (1 Bft) N-NW 337 8,1 C 23,1 C 3,4 km/h (1 Bft)
21.05.2012 10:45 23,0 C 33 % 0,0 l/m 4,3 km/h (1 Bft) N-NW 337 5,9 C 24,0 C 10,0 km/h (2 Bft)
21.05.2012 10:50 21,8 C 36 % 0,0 l/m 4,8 km/h (1 Bft) N 360 6,1 C 23,5 C 10,6 km/h (2 Bft)
21.05.2012 10:55 22,6 C 35 % 0,0 l/m 5,6 km/h (1 Bft) NW 315 6,4 C 23,5 C 14,6 km/h (3 Bft)
21.05.2012 11:00 23,8 C 31 % 0,0 l/m 6,9 km/h (2 Bft) N-NW 337 5,6 C 23,6 C 10,6 km/h (2 Bft)
21.05.2012 11:05 24,5 C 31 % 0,0 l/m 6,6 km/h (2 Bft) W-NW 292 6,3 C 24,7 C 15,9 km/h (3 Bft)
21.05.2012 11:10 25,1 C 32 % 0,0 l/m 6,4 km/h (2 Bft) N-NW 337 7,3 C 25,6 C 4,5 km/h (1 Bft)
21.05.2012 11:15 24,2 C 32 % 0,0 l/m 6,6 km/h (2 Bft) N-NW 337 6,5 C 25,4 C 9,5 km/h (2 Bft)
21.05.2012 11:20 24,7 C 31 % 0,0 l/m 6,0 km/h (2 Bft) W-NW 292 6,4 C 25,5 C 7,1 km/h (2 Bft)
21.05.2012 11:25 24,6 C 31 % 0,0 l/m 5,1 km/h (1 Bft) W-NW 292 6,3 C 25,9 C 5,3 km/h (1 Bft)
21.05.2012 11:30 24,7 C 31 % 0,0 l/m 5,5 km/h (1 Bft) NW 315 6,4 C 25,7 C 8,7 km/h (2 Bft)
21.05.2012 11:35 25,7 C 30 % 0,0 l/m 5,5 km/h (1 Bft) N-NO 22 6,8 C 25,9 C 5,5 km/h (1 Bft)
21.05.2012 11:40 25,4 C 30 % 0,0 l/m 5,8 km/h (2 Bft) W-SW 247 6,6 C 26,6 C 11,1 km/h (2 Bft)
21.05.2012 11:45 24,8 C 30 % 0,0 l/m 6,9 km/h (2 Bft) NW 315 6,0 C 26,3 C 17,9 km/h (3 Bft)
21.05.2012 11:50 24,9 C 30 % 0,0 l/m 7,6 km/h (2 Bft) W-NW 292 6,1 C 25,3 C 8,4 km/h (2 Bft)
21.05.2012 11:55 25,6 C 30 % 0,0 l/m 7,6 km/h (2 Bft) N 360 6,7 C 25,4 C 10,6 km/h (2 Bft)
21.05.2012 12:00 25,9 C 30 % 0,0 l/m 7,6 km/h (2 Bft) W 270 7,0 C 25,4 C 12,7 km/h (3 Bft)
21.05.2012 12:05 23,8 C 31 % 0,0 l/m 8,5 km/h (2 Bft) W-NW 292 5,6 C 24,7 C 20,6 km/h (4 Bft)
21.05.2012 12:10 23,9 C 31 % 0,0 l/m 6,8 km/h (2 Bft) S-SW 202 5,7 C 24,8 C 5,0 km/h (1 Bft)
21.05.2012 12:15 24,6 C 30 % 0,0 l/m 5,5 km/h (1 Bft) W 270 5,9 C 24,6 C 8,5 km/h (2 Bft)
21.05.2012 12:20 25,1 C 30 % 0,0 l/m 5,6 km/h (1 Bft) W 270 6,3 C 25,1 C 4,2 km/h (1 Bft)
21.05.2012 12:25 24,5 C 32 % 0,0 l/m 4,3 km/h (1 Bft) W 270 6,7 C 25,3 C 4,5 km/h (1 Bft)
21.05.2012 12:30 24,5 C 31 % 0,0 l/m 4,0 km/h (1 Bft) W-NW 292 6,3 C 25,3 C 11,1 km/h (2 Bft)
21.05.2012 12:35 24,4 C 31 % 0,0 l/m 5,1 km/h (1 Bft) W-NW 292 6,2 C 25,1 C 11,3 km/h (2 Bft)
21.05.2012 12:40 24,4 C 31 % 0,0 l/m 6,4 km/h (2 Bft) N-NW 337 6,2 C 24,7 C 3,9 km/h (1 Bft)
21.05.2012 12:45 24,2 C 31 % 0,0 l/m 6,0 km/h (2 Bft) W 270 6,0 C 24,8 C 12,2 km/h (2 Bft)
21.05.2012 12:50 23,0 C 32 % 0,0 l/m 5,0 km/h (1 Bft) W 270 5,4 C 24,4 C 4,7 km/h (1 Bft)
21.05.2012 12:55 23,0 C 32 % 0,0 l/m 4,8 km/h (1 Bft) W 270 5,4 C 24,4 C 6,8 km/h (2 Bft)
21.05.2012 13:00 24,0 C 33 % 0,0 l/m 3,5 km/h (1 Bft) W-NW 292 6,7 C 24,8 C 6,6 km/h (2 Bft)
21.05.2012 13:05 24,3 C 33 % 0,0 l/m 4,0 km/h (1 Bft) W-NW 292 7,0 C 25,1 C 5,6 km/h (1 Bft)
21.05.2012 13:10 25,3 C 31 % 0,0 l/m 4,7 km/h (1 Bft) W-NW 292 6,9 C 25,6 C 6,6 km/h (2 Bft)
21.05.2012 13:15 24,8 C 30 % 0,0 l/m 4,3 km/h (1 Bft) S-SO 157 6,0 C 25,9 C 9,7 km/h (2 Bft)
21.05.2012 13:20 25,3 C 30 % 0,0 l/m 4,7 km/h (1 Bft) W-NW 292 6,5 C 26,1 C 10,6 km/h (2 Bft)
21.05.2012 13:25 24,7 C 30 % 0,0 l/m 5,6 km/h (1 Bft) W-NW 292 6,0 C 26,2 C 9,5 km/h (2 Bft)
21.05.2012 13:30 23,5 C 30 % 0,0 l/m 7,2 km/h (2 Bft) N-NW 337 4,9 C 25,4 C 8,7 km/h (2 Bft)
21.05.2012 13:35 23,5 C 30 % 0,0 l/m 6,4 km/h (2 Bft) N-NO 22 4,9 C 25,2 C 3,4 km/h (1 Bft)
21.05.2012 13:40 24,2 C 31 % 0,0 l/m 4,8 km/h (1 Bft) NW 315 6,0 C 25,4 C 5,8 km/h (2 Bft)
21.05.2012 13:45 24,0 C 30 % 0,0 l/m 5,1 km/h (1 Bft) W 270 5,3 C 25,5 C 9,7 km/h (2 Bft)
21.05.2012 13:50 24,2 C 30 % 0,0 l/m 6,3 km/h (2 Bft) W 270 5,5 C 25,5 C 13,7 km/h (3 Bft)
21.05.2012 13:55 24,1 C 30 % 0,0 l/m 6,6 km/h (2 Bft) S 180 5,4 C 25,4 C 4,7 km/h (1 Bft)
21.05.2012 14:00 24,8 C 31 % 0,0 l/m 6,3 km/h (2 Bft) NW 315 6,5 C 25,9 C 10,5 km/h (2 Bft)
21.05.2012 14:05 24,6 C 31 % 0,0 l/m 6,3 km/h (2 Bft) NW 315 6,3 C 25,7 C 9,8 km/h (2 Bft)
21.05.2012 14:10 24,3 C 30 % 0,0 l/m 7,1 km/h (2 Bft) W 270 5,6 C 25,5 C 9,0 km/h (2 Bft)
21.05.2012 14:15 24,1 C 31 % 0,0 l/m 7,2 km/h (2 Bft) W-SW 247 5,9 C 25,2 C 9,0 km/h (2 Bft)
21.05.2012 14:20 24,7 C 31 % 0,0 l/m 8,5 km/h (2 Bft) W-NW 292 6,4 C 24,8 C 12,7 km/h (3 Bft)
21.05.2012 14:25 25,0 C 30 % 0,0 l/m 7,7 km/h (2 Bft) N 360 6,2 C 25,4 C 6,3 km/h (2 Bft)
21.05.2012 14:30 25,0 C 36 % 0,0 l/m 6,3 km/h (2 Bft) W-NW 292 8,9 C 26,5 C 10,8 km/h (2 Bft)
21.05.2012 14:35 25,0 C 38 % 0,0 l/m 6,0 km/h (2 Bft) N-NW 337 9,7 C 26,2 C 4,5 km/h (1 Bft)
21.05.2012 14:40 24,5 C 39 % 0,0 l/m 5,3 km/h (1 Bft) N-NW 337 9,6 C 25,7 C 2,4 km/h (1 Bft)
21.05.2012 14:45 25,0 C 37 % 0,0 l/m 5,5 km/h (1 Bft) N-NO 22 9,3 C 26,0 C 9,3 km/h (2 Bft)
21.05.2012 14:50 23,8 C 38 % 0,0 l/m 5,3 km/h (1 Bft) N 360 8,6 C 26,1 C 3,4 km/h (1 Bft)
21.05.2012 14:55 23,3 C 40 % 0,0 l/m 4,8 km/h (1 Bft) SW 225 8,9 C 25,5 C 3,1 km/h (1 Bft)
21.05.2012 15:00 22,8 C 41 % 0,0 l/m 4,5 km/h (1 Bft) NO 45 8,9 C 24,5 C 10,0 km/h (2 Bft)
21.05.2012 15:05 22,8 C 43 % 0,0 l/m 4,5 km/h (1 Bft) W 270 9,6 C 24,2 C 14,0 km/h (3 Bft)
21.05.2012 15:10 22,5 C 44 % 0,0 l/m 5,1 km/h (1 Bft) N-NW 337 9,6 C 23,6 C 8,0 km/h (2 Bft)
21.05.2012 15:15 22,2 C 42 % 0,0 l/m 5,0 km/h (1 Bft) W 270 8,7 C 23,4 C 3,5 km/h (1 Bft)
21.05.2012 15:20 22,0 C 41 % 0,0 l/m 2,9 km/h (1 Bft) N-NW 337 8,1 C 23,2 C 7,1 km/h (2 Bft)
21.05.2012 15:25 21,9 C 41 % 0,0 l/m 3,4 km/h (1 Bft) W 270 8,0 C 23,1 C 10,1 km/h (2 Bft)
21.05.2012 15:30 22,1 C 43 % 0,0 l/m 4,5 km/h (1 Bft) NW 315 8,9 C 23,0 C 8,9 km/h (2 Bft)
21.05.2012 15:35 22,2 C 43 % 0,0 l/m 5,1 km/h (1 Bft) W-NW 292 9,0 C 23,0 C 10,8 km/h (2 Bft)
21.05.2012 15:40 22,1 C 47 % 0,0 l/m 4,2 km/h (1 Bft) N-NO 22 10,3 C 23,1 C 4,0 km/h (1 Bft)
21.05.2012 15:45 22,6 C 46 % 0,0 l/m 4,7 km/h (1 Bft) W-NW 292 10,4 C 23,0 C 11,7 km/h (2 Bft)
21.05.2012 15:50 22,5 C 43 % 0,0 l/m 6,3 km/h (2 Bft) W 270 9,3 C 23,3 C 7,9 km/h (2 Bft)
21.05.2012 15:55 23,5 C 40 % 0,0 l/m 6,3 km/h (2 Bft) N-NW 337 9,1 C 23,8 C 10,1 km/h (2 Bft)
21.05.2012 16:00 22,5 C 41 % 0,0 l/m 6,1 km/h (2 Bft) SW 225 8,6 C 24,2 C 15,6 km/h (3 Bft)
21.05.2012 16:05 22,2 C 42 % 0,0 l/m 6,8 km/h (2 Bft) W-NW 292 8,7 C 23,7 C 10,6 km/h (2 Bft)
21.05.2012 16:10 22,0 C 43 % 0,0 l/m 6,3 km/h (2 Bft) N-NO 22 8,8 C 23,2 C 4,5 km/h (1 Bft)
21.05.2012 16:15 22,0 C 41 % 0,0 l/m 5,8 km/h (2 Bft) W-SW 247 8,1 C 23,2 C 8,7 km/h (2 Bft)
21.05.2012 16:20 21,8 C 42 % 0,0 l/m 5,5 km/h (1 Bft) N 360 8,3 C 23,0 C 8,2 km/h (2 Bft)
21.05.2012 16:25 21,8 C 42 % 0,0 l/m 5,6 km/h (1 Bft) NW 315 8,3 C 22,8 C 3,1 km/h (1 Bft)
21.05.2012 16:30 21,8 C 44 % 0,0 l/m 5,8 km/h (2 Bft) N 360 9,0 C 22,8 C 6,9 km/h (2 Bft)
21.05.2012 16:35 21,9 C 43 % 0,0 l/m 6,1 km/h (2 Bft) S-SW 202 8,7 C 22,8 C 2,9 km/h (1 Bft)
21.05.2012 16:40 23,1 C 40 % 0,0 l/m 5,8 km/h (2 Bft) W 270 8,8 C 24,2 C 7,2 km/h (2 Bft)
21.05.2012 16:45 23,2 C 40 % 0,0 l/m 5,0 km/h (1 Bft) W-NW 292 8,8 C 25,2 C 7,7 km/h (2 Bft)
21.05.2012 16:50 22,3 C 41 % 0,0 l/m 6,3 km/h (2 Bft) W 270 8,4 C 25,1 C 6,9 km/h (2 Bft)
21.05.2012 16:55 22,0 C 39 % 0,0 l/m 6,6 km/h (2 Bft) N-NW 337 7,4 C 24,2 C 5,3 km/h (1 Bft)
21.05.2012 17:00 21,7 C 40 % 0,0 l/m 4,7 km/h (1 Bft) N-NW 337 7,5 C 23,5 C 8,0 km/h (2 Bft)
21.05.2012 17:05 21,4 C 40 % 0,0 l/m 3,5 km/h (1 Bft) W-NW 292 7,2 C 23,1 C 3,2 km/h (1 Bft)
21.05.2012 17:10 21,1 C 41 % 0,0 l/m 2,4 km/h (1 Bft) W 270 7,3 C 22,7 C 2,6 km/h (1 Bft)
21.05.2012 17:15 21,1 C 43 % 0,0 l/m 1,6 km/h (1 Bft) NO 45 8,0 C 22,6 C 1,8 km/h (1 Bft)
21.05.2012 17:20 21,1 C 43 % 0,0 l/m 1,8 km/h (1 Bft) N 360 8,0 C 22,7 C 2,4 km/h (1 Bft)
21.05.2012 17:25 21,0 C 43 % 0,0 l/m 1,8 km/h (1 Bft) N-NW 337 7,9 C 22,6 C 1,8 km/h (1 Bft)
21.05.2012 17:30 21,2 C 43 % 0,0 l/m 1,6 km/h (1 Bft) N-NW 337 8,1 C 22,6 C 2,1 km/h (1 Bft)
21.05.2012 17:35 21,2 C 46 % 0,0 l/m 1,0 km/h (0 Bft) NW 315 9,1 C 22,7 C 0,0 km/h (0 Bft)
21.05.2012 17:40 21,4 C 44 % 0,0 l/m 1,3 km/h (1 Bft) N 360 8,6 C 22,9 C 2,7 km/h (1 Bft)
21.05.2012 17:45 22,1 C 42 % 0,0 l/m 1,9 km/h (1 Bft) W 270 8,6 C 24,0 C 4,5 km/h (1 Bft)
21.05.2012 17:50 22,3 C 39 % 0,0 l/m 4,7 km/h (1 Bft) W-NW 292 7,7 C 24,8 C 7,4 km/h (2 Bft)
21.05.2012 17:55 22,2 C 39 % 0,0 l/m 5,8 km/h (2 Bft) W 270 7,6 C 25,1 C 6,1 km/h (2 Bft)
21.05.2012 18:00 21,7 C 40 % 0,0 l/m 5,0 km/h (1 Bft) W-NW 292 7,5 C 24,9 C 6,6 km/h (2 Bft)
21.05.2012 18:05 21,4 C 39 % 0,0 l/m 4,5 km/h (1 Bft) W 270 6,9 C 24,2 C 4,8 km/h (1 Bft)
21.05.2012 18:10 20,8 C 38 % 0,0 l/m 4,5 km/h (1 Bft) W-NW 292 6,0 C 23,2 C 3,1 km/h (1 Bft)
21.05.2012 18:15 20,6 C 38 % 0,0 l/m 4,5 km/h (1 Bft) W 270 5,8 C 22,8 C 5,6 km/h (1 Bft)
21.05.2012 18:20 20,6 C 42 % 0,0 l/m 3,9 km/h (1 Bft) N-NW 337 7,2 C 22,5 C 8,2 km/h (2 Bft)
21.05.2012 18:25 21,3 C 36 % 0,0 l/m 3,5 km/h (1 Bft) S-SO 157 5,6 C 23,2 C 2,6 km/h (1 Bft)
21.05.2012 18:30 21,9 C 36 % 0,0 l/m 3,4 km/h (1 Bft) O-NO 67 6,1 C 25,3 C 6,1 km/h (2 Bft)
21.05.2012 18:35 21,7 C 37 % 0,0 l/m 3,4 km/h (1 Bft) NO 45 6,4 C 26,0 C 2,9 km/h (1 Bft)
21.05.2012 18:40 20,8 C 37 % 0,0 l/m 3,7 km/h (1 Bft) W 270 5,6 C 25,4 C 3,9 km/h (1 Bft)
21.05.2012 18:45 20,9 C 38 % 0,0 l/m 3,1 km/h (1 Bft) S-SO 157 6,0 C 25,1 C 1,9 km/h (1 Bft)
21.05.2012 18:50 20,8 C 38 % 0,0 l/m 2,1 km/h (1 Bft) W 270 6,0 C 25,7 C 2,7 km/h (1 Bft)
21.05.2012 18:55 20,5 C 38 % 0,0 l/m 1,9 km/h (1 Bft) S 180 5,7 C 26,2 C 5,0 km/h (1 Bft)
21.05.2012 19:00 20,4 C 37 % 0,0 l/m 2,3 km/h (1 Bft) S 180 5,2 C 25,9 C 4,8 km/h (1 Bft)
21.05.2012 19:05 20,3 C 38 % 0,0 l/m 2,4 km/h (1 Bft) W-SW 247 5,5 C 26,1 C 3,7 km/h (1 Bft)
21.05.2012 19:10 20,2 C 38 % 0,0 l/m 3,4 km/h (1 Bft) W 270 5,4 C 26,0 C 7,1 km/h (2 Bft)
21.05.2012 19:15 20,1 C 37 % 0,0 l/m 3,7 km/h (1 Bft) W 270 5,0 C 25,9 C 5,1 km/h (1 Bft)
21.05.2012 19:20 20,0 C 37 % 0,0 l/m 3,5 km/h (1 Bft) S-SO 157 4,9 C 25,5 C 4,8 km/h (1 Bft)
21.05.2012 19:25 19,8 C 36 % 0,0 l/m 3,2 km/h (1 Bft) S 180 4,3 C 25,3 C 10,1 km/h (2 Bft)
21.05.2012 19:30 19,9 C 37 % 0,0 l/m 3,5 km/h (1 Bft) S-SO 157 4,8 C 25,2 C 3,9 km/h (1 Bft)
21.05.2012 19:35 19,5 C 36 % 0,0 l/m 3,7 km/h (1 Bft) W 270 4,0 C 24,6 C 2,4 km/h (1 Bft)
21.05.2012 19:40 18,5 C 39 % 0,0 l/m 3,4 km/h (1 Bft) W 270 4,3 C 22,5 C 3,9 km/h (1 Bft)
21.05.2012 19:45 18,6 C 38 % 0,0 l/m 3,4 km/h (1 Bft) W-SW 247 4,0 C 22,0 C 0,0 km/h (0 Bft)
21.05.2012 19:50 18,7 C 38 % 0,0 l/m 3,4 km/h (1 Bft) S 180 4,1 C 22,4 C 3,4 km/h (1 Bft)
21.05.2012 19:55 18,8 C 37 % 0,0 l/m 3,9 km/h (1 Bft) S-SW 202 3,8 C 22,6 C 6,6 km/h (2 Bft)
21.05.2012 20:00 18,6 C 37 % 0,0 l/m 4,2 km/h (1 Bft) S 180 3,6 C 22,5 C 5,8 km/h (2 Bft)
21.05.2012 20:05 18,2 C 38 % 0,0 l/m 3,9 km/h (1 Bft) S 180 3,7 C 22,4 C 3,7 km/h (1 Bft)
21.05.2012 20:10 18,0 C 38 % 0,0 l/m 4,0 km/h (1 Bft) S 180 3,5 C 22,0 C 6,3 km/h (2 Bft)
21.05.2012 20:15 17,7 C 39 % 0,0 l/m 3,5 km/h (1 Bft) W 270 3,6 C 21,6 C 3,1 km/h (1 Bft)
21.05.2012 20:20 17,3 C 40 % 0,0 l/m 2,7 km/h (1 Bft) W 270 3,6 C 21,1 C 6,0 km/h (2 Bft)
21.05.2012 20:25 16,9 C 40 % 0,0 l/m 2,7 km/h (1 Bft) W-SW 247 3,2 C 20,2 C 2,1 km/h (1 Bft)
21.05.2012 20:30 16,3 C 40 % 0,0 l/m 2,7 km/h (1 Bft) N-NW 337 2,7 C 19,0 C 1,6 km/h (1 Bft)
21.05.2012 20:35 16,2 C 40 % 0,0 l/m 2,4 km/h (1 Bft) S-SO 157 2,6 C 18,3 C 2,4 km/h (1 Bft)
21.05.2012 20:40 15,7 C 43 % 0,0 l/m 2,6 km/h (1 Bft) SW 225 3,2 C 17,5 C 3,4 km/h (1 Bft)
21.05.2012 20:45 15,4 C 43 % 0,0 l/m 2,1 km/h (1 Bft) O-SO 112 2,9 C 17,1 C 2,6 km/h (1 Bft)
21.05.2012 20:51 14,9 C 46 % 0,0 l/m 1,6 km/h (1 Bft) NW 315 3,4 C 16,1 C 3,5 km/h (1 Bft)
21.05.2012 20:55 14,9 C 46 % 0,0 l/m 1,6 km/h (1 Bft) NW 315 3,4 C 16,1 C 3,5 km/h (1 Bft)
21.05.2012 21:00 14,5 C 45 % 0,0 l/m 1,8 km/h (1 Bft) O 90 2,7 C 15,7 C 10,0 km/h (2 Bft)
21.05.2012 21:05 14,8 C 45 % 0,0 l/m 2,3 km/h (1 Bft) N-NW 337 3,0 C 15,7 C 3,1 km/h (1 Bft)
21.05.2012 21:10 14,4 C 46 % 0,0 l/m 2,7 km/h (1 Bft) O-SO 112 2,9 C 15,5 C 3,4 km/h (1 Bft)
21.05.2012 21:15 14,4 C 46 % 0,0 l/m 2,7 km/h (1 Bft) S 180 2,9 C 15,5 C 2,6 km/h (1 Bft)
21.05.2012 21:20 14,7 C 48 % 0,0 l/m 2,9 km/h (1 Bft) NO 45 3,8 C 15,4 C 2,7 km/h (1 Bft)
21.05.2012 21:25 14,5 C 57 % 0,0 l/m 1,8 km/h (1 Bft) SO 135 6,1 C 15,2 C 3,4 km/h (1 Bft)
21.05.2012 21:30 14,3 C 59 % 0,0 l/m 1,3 km/h (1 Bft) N-NO 22 6,4 C 14,9 C 1,9 km/h (1 Bft)
21.05.2012 21:35 14,2 C 60 % 0,0 l/m 0,8 km/h (0 Bft) S 180 6,5 C 14,6 C 1,9 km/h (1 Bft)
21.05.2012 21:40 13,9 C 63 % 0,0 l/m 2,4 km/h (1 Bft) NW 315 7,0 C 14,4 C 9,0 km/h (2 Bft)
21.05.2012 21:45 13,8 C 66 % 0,0 l/m 2,9 km/h (1 Bft) O-SO 112 7,6 C 14,3 C 3,5 km/h (1 Bft)
21.05.2012 21:50 13,3 C 69 % 0,0 l/m 3,5 km/h (1 Bft) SO 135 7,7 C 14,0 C 5,3 km/h (1 Bft)
21.05.2012 21:55 13,2 C 70 % 0,0 l/m 2,7 km/h (1 Bft) NO 45 7,9 C 13,8 C 0,0 km/h (0 Bft)
21.05.2012 22:00 12,6 C 69 % 0,0 l/m 1,3 km/h (1 Bft) S 180 7,1 C 13,3 C 0,0 km/h (0 Bft)
21.05.2012 22:05 12,4 C 71 % 0,0 l/m 0,8 km/h (0 Bft) NO 45 7,3 C 13,0 C 0,0 km/h (0 Bft)
21.05.2012 22:10 12,2 C 75 % 0,0 l/m 0,8 km/h (0 Bft) S 180 7,9 C 12,6 C 2,3 km/h (1 Bft)
21.05.2012 22:15 12,4 C 75 % 0,0 l/m 0,5 km/h (0 Bft) NO 45 8,1 C 12,4 C 1,9 km/h (1 Bft)
21.05.2012 22:20 12,3 C 76 % 0,0 l/m 1,3 km/h (1 Bft) O 90 8,2 C 12,2 C 3,9 km/h (1 Bft)
21.05.2012 22:25 12,2 C 76 % 0,0 l/m 1,9 km/h (1 Bft) SO 135 8,1 C 12,2 C 3,9 km/h (1 Bft)
21.05.2012 22:30 12,0 C 79 % 0,0 l/m 1,4 km/h (1 Bft) SO 135 8,5 C 12,1 C 0,0 km/h (0 Bft)
21.05.2012 22:35 11,6 C 80 % 0,0 l/m 1,4 km/h (1 Bft) W-NW 292 8,3 C 11,9 C 2,6 km/h (1 Bft)
21.05.2012 22:40 12,0 C 83 % 0,0 l/m 1,9 km/h (1 Bft) N-NW 337 9,2 C 11,9 C 0,0 km/h (0 Bft)
21.05.2012 22:45 11,9 C 81 % 0,0 l/m 1,6 km/h (1 Bft) N 360 8,7 C 11,9 C 1,8 km/h (1 Bft)
21.05.2012 22:50 12,1 C 80 % 0,0 l/m 0,8 km/h (0 Bft) NO 45 8,8 C 11,8 C 0,0 km/h (0 Bft)
21.05.2012 22:55 12,1 C 80 % 0,0 l/m 0,6 km/h (0 Bft) N-NW 337 8,8 C 11,8 C 1,8 km/h (1 Bft)
21.05.2012 23:00 11,9 C 80 % 0,0 l/m 0,6 km/h (0 Bft) NO 45 8,6 C 11,9 C 0,0 km/h (0 Bft)
21.05.2012 23:05 12,0 C 80 % 0,0 l/m 1,1 km/h (1 Bft) N 360 8,7 C 11,9 C 3,4 km/h (1 Bft)
21.05.2012 23:10 11,8 C 79 % 0,0 l/m 1,6 km/h (1 Bft) SO 135 8,3 C 11,9 C 0,0 km/h (0 Bft)
21.05.2012 23:15 11,7 C 79 % 0,0 l/m 1,8 km/h (1 Bft) S-SO 157 8,2 C 11,9 C 2,1 km/h (1 Bft)
21.05.2012 23:20 11,6 C 79 % 0,0 l/m 0,8 km/h (0 Bft) S 180 8,1 C 11,9 C 0,0 km/h (0 Bft)
21.05.2012 23:25 11,3 C 79 % 0,0 l/m 0,8 km/h (0 Bft) O-SO 112 7,8 C 11,7 C 1,8 km/h (1 Bft)
21.05.2012 23:30 11,3 C 80 % 0,0 l/m 0,5 km/h (0 Bft) O 90 8,0 C 11,5 C 0,0 km/h (0 Bft)
21.05.2012 23:35 11,2 C 81 % 0,0 l/m 0,6 km/h (0 Bft) N-NO 22 8,1 C 11,4 C 2,3 km/h (1 Bft)
21.05.2012 23:40 11,0 C 81 % 0,0 l/m 1,4 km/h (1 Bft) O-NO 67 7,9 C 11,3 C 5,5 km/h (1 Bft)
21.05.2012 23:45 10,9 C 82 % 0,0 l/m 1,6 km/h (1 Bft) N-NO 22 7,9 C 11,3 C 0,0 km/h (0 Bft)
21.05.2012 23:50 11,1 C 83 % 0,0 l/m 2,1 km/h (1 Bft) NO 45 8,3 C 11,1 C 0,0 km/h (0 Bft)
21.05.2012 23:55 10,9 C 83 % 0,0 l/m 1,4 km/h (1 Bft) S-SO 157 8,1 C 11,1 C 0,0 km/h (0 Bft)
_ Min-Zeit 23:55 14:25 - 05:50 - - 20:35 23:55 23:55
Minimum _ 10,9 C 30 % - 0,0 km/h (0 Bft) - - 2,6 C 11,1 C 0,0 km/h (0 Bft)
_ Max-Zeit 12:00 23:55 23:55 14:20 - - 08:35 11:40 12:05
Maximum _ 25,9 C 83 % 0,0 l/m 8,5 km/h
W-NW (2 Bft)
- - 12,0 C 26,6 C 20,6 km/h
W-NW (4 Bft)
Durchschnitt _ 18,0 C 49 % #0,0 l/m 2,7 km/h (1 Bft) W - 6,6 C 19,1 C 4,0 km/h (1 Bft)